QPF
0.06 0.07 0.07 0.07 0.07 0.08 0.08 0.08 0.06 0.06 0.07 0.08 0.09 0.06 0.05 0.06 0.05 0.06 0.10 0.06 0.03 0.02 0.03 0.03 0.03 0.04 0.05 0.05 0.05 0.04 0.03 0.03 0.04 0.07 0.09 0.05 0.04 0.04 0.05 0.05 0.05 0.05 0.06
0.07 0.07 0.06 0.06 0.06 0.07 0.08 0.08 0.07 0.08 0.08 0.07 0.09 0.08 0.05 0.04 0.04 0.05 0.09 0.06 0.03 0.02 0.02 0.02 0.03 0.02 0.03 0.03 0.04 0.06 0.05 0.04 0.04 0.05 0.06 0.06 0.05 0.05 0.06 0.07 0.06 0.05 0.05
0.05 0.06 0.06 0.06 0.06 0.07 0.09 0.09 0.10 0.10 0.08 0.07 0.07 0.08 0.05 0.04 0.04 0.05 0.09 0.05 0.02 0.02 0.02 0.02 0.02 0.02 0.02 0.03 0.04 0.04 0.05 0.04 0.04 0.04 0.04 0.05 0.05 0.04 0.04 0.06 0.06 0.05 0.05
0.03 0.05 0.06 0.06 0.07 0.08 0.09 0.09 0.10 0.11 0.10 0.07 0.07 0.07 0.06 0.06 0.04 0.04 0.08 0.04 0.02 0.02 0.02 0.01 0.01 0.01 0.02 0.02 0.03 0.03 0.03 0.04 0.04 0.03 0.03 0.03 0.04 0.04 0.03 0.04 0.04 0.05 0.05
0.03 0.05 0.06 0.07 0.07 0.08 0.08 0.08 0.09 0.12 0.13 0.12 0.11 0.09 0.06 0.06 0.06 0.05 0.06 0.04 0.02 0.02 0.02 0.02 0.01 0.01 0.02 0.02 0.02 0.03 0.02 0.03 0.04 0.03 0.03 0.02 0.03 0.03 0.04 0.03 0.03 0.04 0.04
0.04 0.05 0.05 0.06 0.07 0.07 0.08 0.09 0.11 0.11 0.11 0.11 0.12 0.12 0.10 0.07 0.07 0.07 0.07 0.07 0.04 0.02 0.03 0.03 0.03 0.01 0.01 0.01 0.02 0.02 0.02 0.03 0.04 0.03 0.02 0.03 0.03 0.03 0.03 0.03 0.03 0.04 0.04
0.04 0.05 0.05 0.06 0.06 0.06 0.06 0.08 0.11 0.10 0.07 0.09 0.13 0.15 0.15 0.11 0.10 0.10 0.09 0.08 0.05 0.03 0.04 0.05 0.05 0.04 0.02 0.01 0.01 0.01 0.02 0.02 0.03 0.03 0.03 0.03 0.03 0.03 0.02 0.02 0.03 0.03 0.03
0.03 0.03 0.04 0.04 0.04 0.05 0.06 0.08 0.10 0.10 0.09 0.10 0.12 0.16 0.16 0.15 0.12 0.09 0.10 0.08 0.05 0.04 0.04 0.04 0.04 0.04 0.04 0.03 0.02 0.02 0.02 0.01 0.01 0.02 0.03 0.03 0.03 0.03 0.02 0.02 0.02 0.02 0.03
0.02 0.03 0.03 0.03 0.03 0.04 0.05 0.07 0.08 0.07 0.08 0.11 0.11 0.14 0.13 0.12 0.11 0.10 0.10 0.08 0.06 0.06 0.04 0.04 0.04 0.03 0.03 0.03 0.03 0.02 0.01 0.01 0.01 0.02 0.03 0.04 0.03 0.02 0.02 0.01 0.02 0.02 0.03
0.03 0.03 0.03 0.04 0.04 0.04 0.05 0.05 0.07 0.08 0.08 0.10 0.12 0.13 0.10 0.08 0.09 0.10 0.11 0.10 0.08 0.06 0.04 0.03 0.03 0.03 0.03 0.03 0.04 0.02 0.01 0.01 0.01 0.01 0.02 0.03 0.03 0.03 0.02 0.02 0.02 0.02 0.03
0.03 0.03 0.04 0.05 0.05 0.06 0.06 0.06 0.07 0.07 0.08 0.08 0.07 0.08 0.09 0.10 0.10 0.09 0.09 0.11 0.11 0.08 0.05 0.03 0.03 0.03 0.03 0.03 0.03 0.02 0.01 0.00 0.00 0.01 0.01 0.01 0.02 0.03 0.03 0.02 0.02 0.03 0.03
0.04 0.04 0.05 0.06 0.05 0.06 0.06 0.06 0.07 0.08 0.09 0.08 0.08 0.08 0.08 0.08 0.08 0.08 0.09 0.10 0.11 0.08 0.06 0.05 0.03 0.03 0.04 0.03 0.02 0.02 0.02 0.01 0.01 0.00 0.00 0.01 0.01 0.02 0.03 0.03 0.03 0.04 0.03
0.05 0.05 0.06 0.06 0.05 0.05 0.05 0.07 0.07 0.06 0.07 0.08 0.08 0.08 0.09 0.08 0.08 0.08 0.08 0.09 0.09 0.08 0.09 0.07 0.03 0.02 0.02 0.03 0.04 0.03 0.03 0.03 0.01 0.01 0.00 0.01 0.01 0.01 0.02 0.02 0.03 0.03 0.03
0.06 0.07 0.07 0.06 0.04 0.04 0.05 0.06 0.07 0.07 0.07 0.08 0.08 0.09 0.09 0.09 0.08 0.07 0.07 0.09 0.09 0.09 0.10 0.09 0.05 0.02 0.02 0.02 0.03 0.04 0.03 0.02 0.01 0.01 0.01 0.00 0.01 0.01 0.02 0.02 0.02 0.02 0.03
0.07 0.05 0.06 0.07 0.06 0.05 0.07 0.07 0.07 0.07 0.08 0.09 0.10 0.11 0.09 0.08 0.08 0.07 0.07 0.08 0.08 0.08 0.08 0.07 0.06 0.03 0.01 0.01 0.02 0.03 0.04 0.03 0.02 0.01 0.01 0.01 0.01 0.01 0.01 0.02 0.03 0.03 0.02
0.05 0.05 0.08 0.09 0.07 0.07 0.08 0.09 0.10 0.10 0.11 0.10 0.10 0.12 0.11 0.08 0.07 0.07 0.08 0.09 0.09 0.09 0.08 0.06 0.04 0.02 0.03 0.02 0.02 0.02 0.04 0.04 0.03 0.02 0.01 0.01 0.01 0.01 0.01 0.02 0.02 0.02 0.02
0.04 0.07 0.09 0.09 0.08 0.07 0.08 0.08 0.07 0.09 0.09 0.08 0.10 0.11 0.11 0.09 0.08 0.07 0.08 0.10 0.11 0.11 0.10 0.08 0.07 0.05 0.05 0.04 0.04 0.04 0.04 0.04 0.04 0.02 0.02 0.01 0.01 0.01 0.01 0.01 0.01 0.02 0.02
0.04 0.06 0.07 0.07 0.07 0.06 0.07 0.07 0.07 0.08 0.10 0.09 0.08 0.08 0.08 0.08 0.09 0.09 0.10 0.12 0.14 0.14 0.12 0.10 0.08 0.07 0.05 0.05 0.06 0.05 0.04 0.04 0.03 0.02 0.02 0.02 0.02 0.02 0.01 0.01 0.02 0.02 0.02
0.05 0.06 0.07 0.06 0.07 0.07 0.07 0.06 0.06 0.07 0.07 0.07 0.06 0.05 0.06 0.06 0.07 0.08 0.09 0.09 0.10 0.11 0.12 0.11 0.10 0.10 0.08 0.07 0.07 0.07 0.06 0.06 0.03 0.02 0.02 0.02 0.03 0.02 0.02 0.02 0.02 0.02 0.02
0.05 0.06 0.07 0.07 0.07 0.07 0.07 0.06 0.05 0.05 0.05 0.07 0.07 0.06 0.07 0.08 0.08 0.08 0.09 0.09 0.10 0.12 0.13 0.11 0.10 0.09 0.09 0.09 0.09 0.08 0.06 0.05 0.04 0.02 0.02 0.02 0.03 0.03 0.02 0.02 0.02 0.03 0.02
0.05 0.05 0.05 0.05 0.05 0.05 0.04 0.05 0.05 0.04 0.04 0.06 0.07 0.07 0.06 0.07 0.09 0.09 0.08 0.09 0.11 0.13 0.13 0.12 0.10 0.09 0.08 0.09 0.09 0.08 0.07 0.06 0.05 0.03 0.02 0.02 0.02 0.03 0.03 0.03 0.03 0.03 0.02
0.04 0.04 0.04 0.03 0.04 0.03 0.03 0.04 0.05 0.04 0.04 0.04 0.05 0.06 0.05 0.05 0.05 0.06 0.05 0.08 0.11 0.11 0.12 0.11 0.09 0.08 0.08 0.07 0.07 0.08 0.08 0.08 0.07 0.05 0.05 0.03 0.02 0.03 0.03 0.02 0.03 0.02 0.01
0.05 0.05 0.04 0.04 0.04 0.05 0.03 0.04 0.04 0.04 0.04 0.04 0.04 0.04 0.04 0.03 0.04 0.06 0.06 0.06 0.07 0.10 0.12 0.12 0.11 0.09 0.09 0.07 0.09 0.09 0.09 0.09 0.07 0.05 0.05 0.05 0.04 0.04 0.03 0.03 0.03 0.02 0.01
0.05 0.04 0.04 0.05 0.06 0.04 0.03 0.03 0.04 0.04 0.04 0.04 0.04 0.04 0.04 0.03 0.04 0.07 0.09 0.08 0.09 0.08 0.08 0.09 0.11 0.10 0.10 0.10 0.10 0.09 0.09 0.09 0.07 0.05 0.05 0.05 0.05 0.05 0.03 0.03 0.03 0.02 0.02
0.06 0.04 0.04 0.05 0.07 0.04 0.03 0.03 0.03 0.03 0.04 0.04 0.05 0.04 0.05 0.04 0.04 0.06 0.08 0.09 0.08 0.06 0.05 0.05 0.06 0.08 0.08 0.09 0.11 0.11 0.10 0.10 0.09 0.07 0.07 0.06 0.06 0.05 0.04 0.04 0.03 0.02 0.02
0.06 0.04 0.04 0.06 0.07 0.06 0.03 0.03 0.03 0.03 0.04 0.05 0.06 0.06 0.06 0.05 0.05 0.04 0.05 0.05 0.05 0.05 0.05 0.05 0.05 0.04 0.04 0.05 0.08 0.11 0.11 0.10 0.08 0.08 0.07 0.06 0.05 0.05 0.05 0.04 0.03 0.02 0.02
MSLP
1011.25 1011.42 1011.62 1011.88 1012.23 1012.65 1013.13 1013.63 1014.10 1014.49 1014.77 1014.91 1014.93 1014.86 1014.75 1014.66 1014.65 1014.77 1015.04 1015.45 1015.98 1016.59 1017.23 1017.85 1018.40 1018.86 1019.22 1019.49 1019.68 1019.81 1019.92 1020.02 1020.13 1020.26 1020.40 1020.54 1020.68 1020.80 1020.88 1020.93 1020.93 1020.89 1020.83
1011.15 1011.30 1011.49 1011.75 1012.09 1012.52 1013.02 1013.55 1014.06 1014.51 1014.86 1015.07 1015.15 1015.13 1015.03 1014.92 1014.85 1014.88 1015.04 1015.35 1015.80 1016.36 1016.98 1017.62 1018.22 1018.75 1019.17 1019.49 1019.69 1019.81 1019.87 1019.89 1019.92 1019.97 1020.04 1020.14 1020.26 1020.38 1020.48 1020.55 1020.58 1020.56 1020.51
1011.04 1011.18 1011.37 1011.64 1011.99 1012.43 1012.95 1013.51 1014.08 1014.61 1015.04 1015.35 1015.52 1015.56 1015.49 1015.36 1015.23 1015.15 1015.18 1015.34 1015.66 1016.12 1016.68 1017.30 1017.92 1018.50 1018.98 1019.35 1019.59 1019.71 1019.74 1019.72 1019.68 1019.66 1019.67 1019.73 1019.82 1019.94 1020.06 1020.15 1020.21 1020.23 1020.20
1010.90 1011.05 1011.25 1011.52 1011.88 1012.34 1012.88 1013.48 1014.10 1014.71 1015.24 1015.66 1015.93 1016.06 1016.03 1015.90 1015.72 1015.53 1015.41 1015.42 1015.57 1015.88 1016.34 1016.90 1017.51 1018.11 1018.64 1019.06 1019.35 1019.50 1019.54 1019.50 1019.43 1019.36 1019.33 1019.36 1019.43 1019.54 1019.67 1019.79 1019.88 1019.93 1019.92
1010.72 1010.88 1011.09 1011.38 1011.75 1012.21 1012.76 1013.38 1014.05 1014.72 1015.35 1015.88 1016.27 1016.49 1016.54 1016.44 1016.22 1015.95 1015.71 1015.54 1015.52 1015.67 1015.99 1016.46 1017.02 1017.62 1018.18 1018.65 1018.99 1019.20 1019.28 1019.26 1019.19 1019.12 1019.07 1019.08 1019.14 1019.25 1019.39 1019.52 1019.63 1019.70 1019.71
1010.47 1010.65 1010.88 1011.18 1011.55 1012.00 1012.55 1013.18 1013.87 1014.59 1015.29 1015.92 1016.42 1016.75 1016.90 1016.85 1016.65 1016.34 1016.00 1015.71 1015.54 1015.53 1015.70 1016.05 1016.54 1017.10 1017.66 1018.17 1018.57 1018.84 1018.98 1019.02 1018.99 1018.94 1018.91 1018.92 1018.99 1019.10 1019.23 1019.37 1019.49 1019.57 1019.60
1010.17 1010.37 1010.62 1010.92 1011.28 1011.72 1012.24 1012.84 1013.53 1014.26 1015.01 1015.72 1016.33 1016.78 1017.03 1017.08 1016.94 1016.64 1016.27 1015.90 1015.61 1015.47 1015.51 1015.74 1016.13 1016.63 1017.18 1017.70 1018.15 1018.49 1018.71 1018.82 1018.86 1018.87 1018.88 1018.91 1018.99 1019.10 1019.23 1019.36 1019.48 1019.56 1019.59
1009.84 1010.06 1010.32 1010.62 1010.97 1011.37 1011.85 1012.41 1013.05 1013.78 1014.54 1015.30 1015.98 1016.54 1016.91 1017.08 1017.03 1016.80 1016.46 1016.08 1015.73 1015.51 1015.45 1015.57 1015.87 1016.30 1016.81 1017.33 1017.81 1018.20 1018.50 1018.70 1018.83 1018.91 1018.97 1019.04 1019.14 1019.25 1019.38 1019.50 1019.60 1019.67 1019.70
1009.51 1009.75 1010.02 1010.31 1010.64 1011.00 1011.42 1011.92 1012.51 1013.18 1013.92 1014.69 1015.42 1016.06 1016.54 1016.84 1016.92 1016.81 1016.55 1016.22 1015.90 1015.65 1015.53 1015.58 1015.80 1016.16 1016.62 1017.12 1017.60 1018.04 1018.40 1018.69 1018.90 1019.05 1019.18 1019.30 1019.42 1019.54 1019.65 1019.75 1019.83 1019.89 1019.91
1009.20 1009.45 1009.73 1010.02 1010.32 1010.65 1011.01 1011.44 1011.95 1012.55 1013.23 1013.97 1014.71 1015.40 1015.97 1016.38 1016.60 1016.64 1016.52 1016.30 1016.06 1015.85 1015.73 1015.75 1015.92 1016.22 1016.63 1017.10 1017.58 1018.04 1018.45 1018.80 1019.08 1019.31 1019.49 1019.65 1019.79 1019.91 1020.01 1020.09 1020.15 1020.18 1020.19
1008.90 1009.16 1009.44 1009.74 1010.03 1010.32 1010.64 1011.00 1011.43 1011.95 1012.55 1013.23 1013.93 1014.63 1015.25 1015.76 1016.11 1016.30 1016.35 1016.29 1016.17 1016.06 1016.00 1016.04 1016.19 1016.46 1016.83 1017.27 1017.73 1018.20 1018.64 1019.03 1019.37 1019.65 1019.88 1020.07 1020.22 1020.33 1020.42 1020.47 1020.50 1020.51 1020.51
1008.57 1008.85 1009.14 1009.45 1009.74 1010.03 1010.32 1010.63 1010.99 1011.42 1011.93 1012.52 1013.16 1013.82 1014.45 1015.02 1015.48 1015.82 1016.03 1016.14 1016.19 1016.22 1016.27 1016.37 1016.55 1016.83 1017.18 1017.59 1018.04 1018.50 1018.95 1019.37 1019.74 1020.06 1020.32 1020.52 1020.67 1020.78 1020.84 1020.87 1020.88 1020.87 1020.85
1008.18 1008.47 1008.79 1009.12 1009.43 1009.73 1010.02 1010.31 1010.62 1010.97 1011.39 1011.88 1012.43 1013.03 1013.63 1014.22 1014.75 1015.21 1015.58 1015.87 1016.10 1016.29 1016.48 1016.68 1016.94 1017.24 1017.60 1018.02 1018.46 1018.92 1019.37 1019.80 1020.19 1020.52 1020.79 1021.00 1021.15 1021.23 1021.27 1021.28 1021.26 1021.23 1021.20
1007.69 1008.00 1008.35 1008.71 1009.07 1009.40 1009.71 1010.00 1010.29 1010.59 1010.93 1011.32 1011.78 1012.29 1012.85 1013.42 1013.99 1014.54 1015.04 1015.49 1015.89 1016.25 1016.59 1016.93 1017.28 1017.65 1018.05 1018.48 1018.93 1019.40 1019.85 1020.29 1020.68 1021.02 1021.29 1021.49 1021.63 1021.69 1021.71 1021.69 1021.65 1021.61 1021.56
1007.09 1007.42 1007.80 1008.21 1008.62 1009.01 1009.37 1009.69 1009.98 1010.25 1010.54 1010.85 1011.22 1011.65 1012.14 1012.68 1013.26 1013.86 1014.45 1015.03 1015.59 1016.11 1016.61 1017.08 1017.54 1018.00 1018.46 1018.93 1019.41 1019.88 1020.35 1020.79 1021.19 1021.53 1021.80 1021.99 1022.11 1022.16 1022.16 1022.12 1022.06 1022.00 1021.95
1006.40 1006.76 1007.19 1007.64 1008.11 1008.56 1008.98 1009.34 1009.66 1009.93 1010.19 1010.46 1010.76 1011.11 1011.54 1012.04 1012.61 1013.23 1013.89 1014.57 1015.25 1015.90 1016.53 1017.13 1017.71 1018.25 1018.79 1019.31 1019.82 1020.32 1020.81 1021.26 1021.67 1022.01 1022.28 1022.47 1022.58 1022.62 1022.61 1022.56 1022.49 1022.43 1022.37
1005.69 1006.09 1006.55 1007.05 1007.57 1008.07 1008.54 1008.96 1009.32 1009.61 1009.87 1010.12 1010.38 1010.68 1011.06 1011.52 1012.07 1012.70 1013.40 1014.14 1014.90 1015.66 1016.40 1017.10 1017.77 1018.40 1019.00 1019.57 1020.13 1020.66 1021.17 1021.64 1022.06 1022.41 1022.69 1022.89 1023.00 1023.05 1023.04 1022.99 1022.93 1022.87 1022.81
1005.03 1005.47 1005.96 1006.49 1007.05 1007.59 1008.10 1008.56 1008.95 1009.28 1009.56 1009.81 1010.06 1010.34 1010.69 1011.13 1011.67 1012.30 1013.01 1013.79 1014.60 1015.42 1016.22 1016.99 1017.73 1018.42 1019.07 1019.69 1020.28 1020.85 1021.38 1021.88 1022.31 1022.69 1022.98 1023.19 1023.33 1023.39 1023.40 1023.38 1023.34 1023.29 1023.24
1004.51 1004.98 1005.49 1006.03 1006.59 1007.15 1007.68 1008.16 1008.58 1008.94 1009.24 1009.51 1009.77 1010.06 1010.41 1010.84 1011.37 1012.00 1012.72 1013.51 1014.34 1015.18 1016.02 1016.82 1017.59 1018.31 1019.00 1019.65 1020.26 1020.85 1021.40 1021.92 1022.38 1022.77 1023.09 1023.34 1023.51 1023.61 1023.66 1023.67 1023.66 1023.64 1023.61
1004.16 1004.65 1005.16 1005.69 1006.23 1006.78 1007.30 1007.78 1008.21 1008.58 1008.91 1009.20 1009.49 1009.80 1010.16 1010.60 1011.14 1011.77 1012.49 1013.27 1014.10 1014.95 1015.78 1016.60 1017.37 1018.10 1018.79 1019.44 1020.06 1020.66 1021.22 1021.75 1022.23 1022.65 1023.00 1023.28 1023.49 1023.64 1023.74 1023.81 1023.85 1023.86 1023.86
1003.98 1004.47 1004.97 1005.47 1005.98 1006.48 1006.97 1007.43 1007.85 1008.22 1008.56 1008.87 1009.19 1009.53 1009.92 1010.38 1010.92 1011.56 1012.28 1013.06 1013.87 1014.70 1015.52 1016.31 1017.07 1017.78 1018.45 1019.09 1019.70 1020.29 1020.85 1021.38 1021.87 1022.31 1022.69 1023.01 1023.28 1023.48 1023.64 1023.76 1023.85 1023.91 1023.94
1003.94 1004.42 1004.89 1005.36 1005.82 1006.27 1006.70 1007.12 1007.50 1007.86 1008.20 1008.53 1008.86 1009.23 1009.65 1010.13 1010.70 1011.34 1012.06 1012.83 1013.63 1014.43 1015.23 1015.99 1016.72 1017.40 1018.04 1018.65 1019.24 1019.80 1020.35 1020.87 1021.36 1021.81 1022.22 1022.57 1022.88 1023.13 1023.34 1023.52 1023.65 1023.75 1023.81
1003.97 1004.44 1004.88 1005.30 1005.71 1006.10 1006.49 1006.85 1007.20 1007.54 1007.87 1008.20 1008.55 1008.93 1009.37 1009.87 1010.45 1011.10 1011.82 1012.58 1013.37 1014.15 1014.92 1015.66 1016.35 1017.00 1017.61 1018.19 1018.74 1019.28 1019.80 1020.30 1020.78 1021.23 1021.64 1022.02 1022.36 1022.65 1022.91 1023.12 1023.29 1023.42 1023.50
1004.01 1004.46 1004.88 1005.27 1005.63 1005.99 1006.33 1006.66 1006.98 1007.29 1007.61 1007.93 1008.28 1008.68 1009.12 1009.64 1010.22 1010.88 1011.59 1012.34 1013.12 1013.89 1014.64 1015.36 1016.03 1016.66 1017.24 1017.78 1018.30 1018.80 1019.29 1019.76 1020.22 1020.66 1021.07 1021.46 1021.81 1022.12 1022.40 1022.63 1022.82 1022.96 1023.04
1004.04 1004.47 1004.87 1005.23 1005.58 1005.91 1006.24 1006.55 1006.86 1007.16 1007.47 1007.79 1008.14 1008.53 1008.97 1009.48 1010.06 1010.71 1011.42 1012.16 1012.93 1013.69 1014.44 1015.14 1015.80 1016.41 1016.98 1017.50 1017.99 1018.46 1018.92 1019.36 1019.78 1020.20 1020.59 1020.97 1021.31 1021.63 1021.90 1022.14 1022.32 1022.45 1022.51
1004.05 1004.46 1004.84 1005.21 1005.56 1005.90 1006.23 1006.55 1006.87 1007.18 1007.49 1007.81 1008.16 1008.54 1008.97 1009.47 1010.03 1010.66 1011.35 1012.08 1012.84 1013.60 1014.34 1015.04 1015.70 1016.31 1016.87 1017.38 1017.85 1018.30 1018.72 1019.13 1019.52 1019.91 1020.27 1020.62 1020.95 1021.24 1021.50 1021.71 1021.87 1021.97 1022.00
Thickness
5732 5731 5728 5727 5726 5725 5724 5722 5722 5722 5722 5722 5722 5723 5724 5725 5725 5723 5722 5721 5720 5719 5718 5717 5715 5714 5713 5712 5711 5711 5710 5710 5710 5709 5709 5708 5708 5708 5707 5707 5707 5707 5707
5728 5726 5725 5724 5723 5722 5721 5719 5719 5719 5719 5719 5719 5719 5720 5720 5720 5720 5719 5718 5717 5716 5715 5714 5713 5712 5711 5710 5709 5708 5708 5708 5707 5706 5706 5706 5705 5705 5705 5705 5705 5705 5705
5724 5722 5721 5720 5719 5719 5718 5716 5715 5714 5714 5715 5715 5715 5715 5715 5716 5715 5715 5714 5714 5713 5712 5711 5711 5710 5709 5708 5707 5706 5705 5705 5704 5704 5703 5702 5703 5703 5703 5703 5703 5703 5703
5720 5718 5717 5715 5715 5715 5714 5712 5711 5709 5709 5709 5710 5711 5712 5711 5712 5711 5711 5711 5711 5710 5709 5708 5708 5707 5706 5705 5705 5704 5703 5702 5701 5701 5701 5700 5700 5700 5701 5701 5701 5701 5701
5716 5714 5712 5711 5711 5710 5709 5708 5706 5704 5703 5703 5704 5706 5707 5707 5708 5708 5708 5708 5708 5708 5707 5706 5705 5704 5703 5703 5702 5701 5700 5700 5699 5699 5698 5698 5698 5698 5698 5698 5698 5699 5699
5712 5709 5708 5706 5706 5705 5704 5703 5700 5700 5698 5698 5700 5701 5702 5703 5704 5704 5704 5705 5705 5705 5704 5704 5702 5701 5700 5700 5700 5699 5698 5698 5697 5696 5696 5695 5695 5695 5695 5695 5695 5695 5695
5707 5705 5703 5702 5701 5700 5699 5698 5696 5694 5693 5694 5691 5691 5694 5698 5699 5700 5701 5701 5701 5701 5701 5700 5699 5698 5698 5697 5697 5696 5696 5695 5694 5693 5692 5692 5692 5692 5692 5692 5692 5692 5692
5702 5702 5699 5698 5697 5696 5695 5693 5691 5688 5688 5688 5684 5681 5681 5686 5691 5696 5696 5696 5697 5697 5698 5698 5697 5696 5696 5695 5694 5694 5693 5692 5691 5690 5689 5689 5689 5689 5689 5689 5689 5689 5689
5698 5696 5695 5694 5693 5692 5690 5689 5687 5684 5682 5684 5683 5679 5675 5676 5681 5687 5691 5692 5693 5693 5693 5694 5694 5694 5694 5693 5692 5690 5689 5688 5687 5687 5686 5686 5685 5685 5685 5685 5685 5685 5686
5694 5692 5691 5690 5689 5688 5687 5686 5685 5682 5679 5677 5678 5680 5679 5679 5674 5675 5681 5686 5687 5687 5688 5690 5691 5691 5691 5690 5690 5688 5686 5685 5684 5683 5683 5682 5682 5681 5681 5681 5681 5681 5681
5689 5688 5687 5686 5685 5684 5683 5682 5680 5679 5676 5674 5674 5674 5674 5675 5676 5671 5670 5675 5679 5683 5684 5686 5687 5688 5688 5687 5686 5685 5684 5682 5681 5679 5679 5678 5678 5677 5677 5677 5677 5676 5676
5684 5683 5683 5682 5681 5680 5679 5678 5676 5674 5673 5671 5671 5671 5670 5669 5669 5669 5667 5668 5670 5675 5679 5680 5681 5682 5684 5683 5683 5682 5680 5679 5677 5676 5675 5674 5674 5673 5673 5673 5672 5672 5671
5677 5677 5677 5676 5676 5675 5674 5673 5672 5670 5669 5667 5666 5666 5667 5667 5668 5667 5664 5664 5665 5669 5671 5674 5677 5678 5680 5679 5678 5677 5677 5675 5673 5672 5671 5670 5669 5668 5668 5668 5667 5667 5666
5673 5673 5672 5672 5671 5670 5670 5669 5667 5666 5665 5663 5663 5662 5661 5662 5663 5663 5661 5659 5656 5659 5662 5666 5671 5673 5674 5674 5673 5673 5672 5671 5669 5668 5667 5666 5665 5664 5663 5663 5662 5662 5661
5669 5668 5667 5666 5666 5664 5664 5663 5662 5661 5660 5659 5658 5657 5656 5657 5658 5658 5658 5657 5652 5649 5653 5659 5662 5667 5668 5669 5668 5668 5667 5666 5665 5664 5662 5661 5660 5659 5658 5658 5657 5656 5655
5663 5663 5662 5661 5660 5659 5659 5658 5657 5656 5655 5654 5653 5651 5651 5651 5653 5652 5652 5653 5652 5649 5649 5655 5658 5662 5663 5664 5663 5663 5663 5661 5660 5659 5658 5657 5655 5654 5653 5652 5652 5651 5650
5659 5657 5656 5655 5654 5653 5653 5651 5650 5649 5648 5647 5647 5647 5646 5646 5646 5646 5647 5647 5647 5646 5645 5649 5653 5657 5658 5658 5658 5658 5658 5657 5656 5655 5654 5653 5651 5650 5649 5648 5647 5646 5645
5654 5652 5651 5649 5648 5648 5648 5645 5644 5643 5642 5642 5642 5641 5641 5642 5641 5641 5640 5641 5641 5643 5642 5643 5646 5649 5651 5653 5653 5653 5653 5653 5652 5651 5650 5649 5647 5646 5644 5643 5642 5641 5639
5650 5648 5646 5644 5643 5643 5642 5641 5639 5638 5637 5637 5638 5637 5637 5636 5635 5635 5635 5635 5636 5639 5639 5639 5641 5644 5645 5647 5647 5648 5648 5648 5648 5647 5646 5645 5643 5642 5640 5639 5637 5636 5634
5646 5645 5643 5642 5640 5638 5637 5636 5635 5633 5632 5633 5634 5634 5633 5632 5632 5631 5631 5631 5632 5633 5634 5635 5637 5639 5640 5642 5642 5641 5640 5641 5642 5643 5642 5641 5639 5637 5636 5635 5633 5631 5629
5644 5642 5640 5639 5638 5635 5633 5632 5630 5629 5628 5628 5629 5630 5630 5630 5630 5629 5629 5629 5629 5628 5630 5631 5633 5634 5635 5635 5636 5637 5635 5635 5636 5637 5636 5635 5634 5631 5630 5629 5628 5626 5623
5640 5639 5637 5635 5633 5632 5629 5627 5625 5623 5623 5623 5623 5625 5626 5626 5626 5626 5626 5627 5627 5626 5627 5627 5629 5630 5632 5633 5634 5633 5630 5629 5629 5633 5630 5629 5629 5627 5626 5624 5623 5621 5618
5636 5634 5633 5632 5630 5628 5625 5623 5621 5619 5619 5619 5619 5620 5622 5624 5624 5624 5624 5624 5624 5625 5626 5626 5626 5628 5630 5632 5630 5629 5627 5626 5626 5629 5626 5624 5624 5622 5622 5621 5618 5615 5611
5632 5631 5629 5628 5626 5625 5622 5619 5618 5617 5616 5616 5617 5618 5619 5620 5622 5621 5622 5622 5623 5625 5625 5624 5626 5627 5629 5629 5628 5627 5626 5625 5625 5625 5624 5619 5619 5617 5616 5614 5612 5609 5606
5629 5627 5627 5625 5624 5622 5620 5618 5615 5615 5614 5614 5615 5617 5618 5618 5619 5618 5618 5619 5620 5621 5623 5625 5625 5626 5626 5626 5624 5622 5620 5618 5617 5618 5619 5615 5613 5611 5609 5607 5605 5603 5600
5625 5625 5624 5623 5621 5620 5617 5615 5612 5613 5612 5613 5613 5615 5615 5615 5615 5615 5615 5615 5615 5617 5619 5620 5620 5621 5621 5621 5620 5618 5617 5615 5613 5612 5613 5610 5607 5604 5600 5600 5598 5595 5592